Location: Home
(42.5358°N, 72.7383°W)
Time: 18:24:21
(UTC-04:00)

Explorer 11/Cluster Stage 4 - Pass Details

Date: 09 August 2024
Orbit: 464 x 1208 km, 28.8° (Epoch: 19 September)

Event Time Altitude Azimuth Distance (km) Brightness Sun altitude
Rises 23:31:55 0° 221° (SW) 3,276 - -28.9°
Reaches altitude 10° 23:35:02 10° 202° (SSW) 2,495 - -29.1°
Maximum altitude 23:39:00 18° 161° (SSE) 2,143 - -29.4°
Drops below altitude 10° 23:43:26 10° 121° (ESE) 2,843 - -29.7°
Sets 23:47:19 0° 104° (ESE) 3,924 - -29.9°
